Location: Archemont
(49.1579°N, 1.7598°E)
Time: 10:23:37
(UTC+00:00)

S-56A Canister/Altair - All Passes

Search period start: 17 April 2024 00:00
Search period end: 27 April 2024 00:00
Orbit: 639 x 2488 km, 38.9° (Epoch: 16 April)

Date Brightness Start Highest point End Pass type
(mag) Time Alt. Az. Time Alt. Az. Time Alt. Az.
17 Apr - 01:23:20 10° WSW 01:26:16 11° SW 01:29:19 10° SSW visible
17 Apr - 16:34:18 10° S 16:38:02 17° SE 16:42:35 10° ESE daylight
17 Apr - 18:34:25 10° SW 18:40:34 38° SSE 18:49:27 10° ESE daylight
17 Apr - 20:36:45 10° WSW 20:44:20 43° S 20:55:17 10° ESE visible
17 Apr - 22:40:21 10° W 22:48:35 30° SSW 22:59:21 10° SSE visible
18 Apr - 00:48:04 10° WSW 00:52:31 13° SW 00:57:22 10° SSW visible
18 Apr - 16:02:11 10° SSE 16:04:51 13° SE 16:07:52 10° ESE daylight
18 Apr - 18:01:29 10° SW 18:07:09 34° SSE 18:15:10 10° ESE daylight
18 Apr - 20:03:37 10° WSW 20:10:40 43° S 20:20:59 10° ESE visible
18 Apr - 22:06:56 10° W 22:14:48 31° SSW 22:25:21 10° SSE visible
19 Apr - 00:13:33 10° WSW 00:18:47 14° SW 00:24:38 10° SSW visible
19 Apr - 17:28:37 10° SW 17:33:47 31° SSE 17:40:54 10° ESE daylight
19 Apr - 19:30:30 10° WSW 19:37:05 41° S 19:46:42 10° ESE visible
19 Apr - 21:33:36 10° WSW 21:41:04 32° SSW 21:51:17 10° SE visible
19 Apr - 23:39:25 10° WSW 23:45:03 15° SW 23:51:33 10° S visible
20 Apr - 16:55:49 10° SSW 17:00:29 27° SSE 17:06:42 10° ESE daylight
20 Apr - 18:57:26 10° WSW 19:03:34 40° S 19:12:27 10° ESE daylight
20 Apr - 21:00:20 10° WSW 21:07:23 33° SSW 21:17:11 10° SE visible
20 Apr - 23:05:31 10° WSW 23:11:21 17° SW 23:18:14 10° S visible
21 Apr - 16:23:03 10° SSW 16:27:14 23° SSE 16:32:33 10° ESE daylight
21 Apr - 18:24:25 10° WSW 18:30:06 38° S 18:38:15 10° ESE daylight
21 Apr - 20:27:08 10° WSW 20:33:46 33° SSW 20:43:04 10° SE visible
21 Apr - 22:31:49 10° WSW 22:37:39 18° SSW 22:44:43 10° S visible
22 Apr - 15:50:23 10° SSW 15:54:00 19° SSE 15:58:24 10° ESE daylight
22 Apr - 17:51:25 10° WSW 17:56:42 36° S 18:04:06 10° ESE daylight
22 Apr - 19:53:58 10° WSW 20:00:11 33° SSW 20:08:58 10° SE visible
22 Apr - 21:58:14 10° WSW 22:03:59 19° SSW 22:11:07 10° S visible
23 Apr - 15:17:49 10° S 15:20:48 16° SSE 15:24:15 10° ESE daylight
23 Apr - 17:18:27 10° SW 17:23:20 33° S 17:30:01 10° ESE daylight
23 Apr - 19:20:50 10° WSW 19:26:40 33° S 19:34:52 10° SE visible
23 Apr - 21:24:46 10° WSW 21:30:22 20° SSW 21:37:25 10° SSE visible
24 Apr - 14:45:27 10° S 14:47:37 13° SSE 14:49:58 10° ESE daylight
24 Apr - 16:45:30 10° SW 16:50:01 30° SSE 16:56:00 10° ESE daylight
24 Apr - 18:47:45 10° WSW 18:53:11 33° S 19:00:47 10° SE daylight
24 Apr - 20:51:23 10° WSW 20:56:46 20° SSW 21:03:40 10° SSE visible
25 Apr - 14:13:57 10° SSE 14:14:26 10° SE 14:14:56 10° SE daylight
25 Apr - 16:12:34 10° SW 16:16:45 27° SSE 16:22:03 10° ESE daylight
25 Apr - 18:14:40 10° WSW 18:19:45 32° S 18:26:47 10° SE daylight
25 Apr - 20:18:05 10° WSW 20:23:14 21° SSW 20:29:52 10° SSE visible
26 Apr - 15:39:39 10° SW 15:43:30 24° SSE 15:48:10 10° ESE daylight
26 Apr - 17:41:38 10° WSW 17:46:23 31° S 17:52:48 10° SE daylight
26 Apr - 19:44:50 10° WSW 19:49:43 21° SSW 19:56:04 10° SSE visible
